Regional Weather Roundup
Issued by NWS

Home | Current Version | Previous Version | Text Only | Print | Product List | Glossary Off
Versions: 1 2 3 4 5 6 7 8 9 10 11 12 13 14 15 16 17 18 19 20 21 22 23 24 25 26 27 28 29 30 31 32 33 34 35 36 37 38 39 40 41 42 43 44 45 46 47 48 49 50

057
ASUS43 KIND 281609
RWRIN

WEATHER ROUNDUP FOR INDIANA
NATIONAL WEATHER SERVICE INDIANAPOLIS IN
1200 PM EDT SUN MAY 28 2017

NOTE: "FAIR" INDICATES FEW OR NO CLOUDS BELOW 12,000 FEET WITH NO
SIGNIFICANT WEATHER AND/OR OBSTRUCTIONS TO VISIBILITY.

* - STATION DOES NOT REPORT WEATHER SUCH AS PRECIPITATION OR FOG.

+ - STATION NOT QUALITY CONTROLLED BY THE NATIONAL WEATHER SERVICE.
    USE DATA WITH CAUTION...ESPECIALLY DEWPOINT AND RELATIVE
    HUMIDITY OBSERVATIONS.

INZ001>003-010>013-019-020-281700-
NORTHWEST INDIANA

CITY           SKY/WX    TMP DP  RH WIND       PRES   REMARKS
GARY /AIRPORT/ PTSUNNY   70  61  73 N5        29.74R HAZE
KNOX *+        CLOUDY    72  54  53 SW3       29.72S
LA PORTE +     PTSUNNY   71  64  76 CALM      29.74R
MICHIGAN CITY+ CLOUDY    68  61  77 NW9       29.74R
MONTICELLO +   CLOUDY    70  66  86 SW7       29.73S
RENSSELAER +   PTSUNNY   73  63  68 W7        29.73S
VALPARAISO     CLOUDY    74  65  73 SW7       29.74R

$$

LMZ046-743>745-281700-
SOUTHERN LAKE MICHIGAN

STATION/POSITION TIME  TEMP    WIND        PRES    WAVE
                       AIR SEA DIR/SP/G            HT
                 (UTC) (F)     (DEG/KT/KT) (MB)    (FT)
BURNS HARBOR     1540   57     340/  8/ 11 1007.5S
MICHIGAN CITY    1540   59     320/ 16/ 18   N/A
5NW MICH CITY    1600   56 56  340/  8/ 10   N/A     1

$$

INZ004-005-014>016-021>024-281700-
NORTH CENTRAL INDIANA

CITY           SKY/WX    TMP DP  RH WIND       PRES   REMARKS
ELKHART        SUNNY     73  61  64 CALM      29.73S
GOSHEN         PTSUNNY   74  62  66 SE3       29.73S
LOGANSPORT +   CLOUDY    70  64  83 SW9       29.74S
PERU/GRISSOM   CLOUDY    70  69  95 SW8       29.73R
ROCHESTER +    PTSUNNY   77  66  69 SW7       29.73S
SOUTH BEND     MOSUNNY   73  64  73 VRB6      29.72F
WARSAW +       CLOUDY    72  63  73 SE3       29.73R

$$

INZ006>009-017-018-025>027-281700-
NORTHEAST INDIANA

CITY           SKY/WX    TMP DP  RH WIND       PRES   REMARKS
ANGOLA *+      MOSUNNY   72  64  78 VRB3      29.73S
AUBURN +       MOSUNNY   72  63  73 CALM      29.74S
FORT WAYNE     PTSUNNY   73  65  75 VRB3      29.73S
HUNTINGTON +   CLOUDY   N/A N/A N/A SW6       29.73S
KENDALLVILLE + SUNNY     73  63  70 SE3       29.74S

$$

INZ028-029-035-036-043>045-051>053-281700-
WEST CENTRAL INDIANA

CITY           SKY/WX    TMP DP  RH WIND       PRES   REMARKS
CRAWFORDSVL +  PTSUNNY  -18 -22  80 SW15G21   29.76S WCI -43
GREENCASTLE +  PTSUNNY   72  61  68 SW6       29.77S
LAFAYETTE      CLOUDY    72  66  81 SW7       29.73R
TERRE HAUTE    CLOUDY    73  61  65 SW14      29.77S

$$

INZ030>032-037>040-046>048-054>057-064-065-281700-
CENTRAL INDIANA

CITY           SKY/WX    TMP DP  RH WIND       PRES   REMARKS
CP ATTERBURY + CLOUDY    70  61  73 W6        29.78S
COLUMBUS       CLOUDY    70  59  68 W15       29.79R
FISHERS *+     PTSUNNY   72  64  78 SW10G17   29.76
FRANKFORT +    MOSUNNY   76  66  71 W10G16    29.76S
GREENWOOD *+   PTSUNNY   72  61  68 W9G23     29.78S
INDIANAPOLIS   PTSUNNY   72  62  71 SW14G23   29.76S
-EAGLE CREEK   MOSUNNY   73  61  65 SW10G17   29.75S
KOKOMO +       CLOUDY    70  64  81 SW13      29.75R
MARION +       CLOUDY    68  63  83 SW10      29.76R
MT COMFORT *+    N/A    N/A N/A N/A MISG        N/A
SHELBYVILLE    LGT RAIN  74  61  63 W13       29.76R
ZIONSVILLE +   PTSUNNY   71  63  76 SW12      29.76S

$$

INZ033-034-041-042-049-050-058-059-281700-
EAST CENTRAL INDIANA

CITY           SKY/WX    TMP DP  RH WIND       PRES   REMARKS
MUNCIE         CLOUDY    72  62  71 SW10G18   29.75R
RICHMOND +     CLOUDY    68  61  77 SW16      29.79R

$$

INZ060-061-067>069-081>083-085>088-281700-
SOUTHWEST INDIANA

CITY           SKY/WX    TMP DP  RH WIND       PRES   REMARKS
EVANSVILLE     CLOUDY    71  61  70 W13       29.83S
HUNTINGBURG *+ CLOUDY    71  63  75 W14       29.82F
WASHINGTON +   CLOUDY    70  60  70 SW14G21   29.80R

$$

INZ062-063-066-070>080-084-089>092-281700-
SOUTH CENTRAL AND SOUTHEAST INDIANA

CITY           SKY/WX    TMP DP  RH WIND       PRES   REMARKS
BEDFORD +      CLOUDY    70  61  73 SW12G17   29.80S
BLOOMINGTON    CLOUDY    72  60  66 SW14      29.78F
MADISON *+     CLOUDY    70  61  73 SW13      29.83S
NORTH VERNON + CLOUDY    68  61  77 SW13G22   29.81R
SEYMOUR +      CLOUDY    70  61  73 SW10G20   29.80S

$$





USA.gov is the U.S. government's official web portal to all federal, state and local government web resources and services.